Overview Statistics Trail Chart Weather Telemetry Raw packets
 

This is the latest recevied weather packets stored in our database for station/object DL0BB-10. If no packets are shown the sender has not sent any weather packets the latest 10 day(s).

<< 24 25 26 27 28 29 30 >>
Time Temp. Humidity Pressure Rain* Wind** Luminosity Snow
1788132585 26.67° C 40% 1015 hPa - - - -
1788131685 26.11° C 42% 1015.4 hPa - - - -
1788130785 26.11° C 41% 1015.5 hPa - - - -
1788129885 26.67° C 40% 1013.7 hPa - - - -
1788128985 26.11° C 41% 1013.7 hPa - - - -
1788128085 26.11° C 42% 1013.7 hPa - - - -
1788127185 26.67° C 41% 1014 hPa - - - -
1788126285 27.22° C 40% 1013.9 hPa - - - -
1788125385 26.11° C 42% 1014 hPa - - - -
1788124484 26.67° C 41% 1013.9 hPa - - - -
1788123584 27.22° C 40% 1014.1 hPa - - - -
1788122685 27.22° C 40% 1014.2 hPa - - - -
1788121785 26.67° C 42% 1014.3 hPa - - - -
1788120885 26.67° C 41% 1014.4 hPa - - - -
1788119985 27.22° C 40% 1014.4 hPa - - - -
1788119085 27.22° C 41% 1014.4 hPa - - - -
1788118184 26.67° C 41% 1014.4 hPa - - - -
1788117284 27.22° C 41% 1014.5 hPa - - - -
1788116384 27.78° C 40% 1014.4 hPa - - - -
1788115484 27.22° C 42% 1014.4 hPa - - - -
1788114584 27.22° C 41% 1014.3 hPa - - - -
1788113684 27.22° C 40% 1014.4 hPa - - - -
1788112784 27.78° C 40% 1014.4 hPa - - - -
1788111884 26.67° C 42% 1014.4 hPa - - - -
1788110984 27.22° C 41% 1014.4 hPa - - - -

* Rain since midnight (hover to see other rain measurements)
** Current wind speed in m/s (hover to see current wind gust speed)